RH
60 61 62 61 63 66 68 70 72 71 69 68 67 66 65 64 64 63 62 61 61 62 61 60 59 60 59 58 57 55 53 52 50 49 47 45 44 43 42 41 40 40
59 60 60 60 60 61 62 65 68 68 68 70 71 71 72 72 70 68 65 63 62 62 62 62 61 60 59 59 58 57 55 54 52 51 50 48 46 45 44 43 42 41
60 61 60 61 62 62 62 62 63 64 64 66 68 69 71 73 73 72 70 68 66 64 63 63 63 62 62 61 59 58 57 56 54 53 52 51 49 47 46 45 44 43
61 63 62 63 64 63 63 62 62 63 63 64 66 68 68 67 67 68 69 70 70 68 65 64 63 64 63 62 61 60 59 58 56 55 54 53 52 51 49 47 45 45
65 66 66 66 66 65 64 63 64 65 65 66 67 68 68 66 65 65 66 67 68 69 68 67 65 64 63 62 61 61 60 60 58 57 56 55 54 54 53 51 49 48
70 70 71 70 70 69 68 67 68 69 70 70 70 70 70 70 70 69 69 68 68 68 68 68 68 66 64 63 61 60 60 60 59 58 57 56 56 55 54 55 53 52
74 73 75 77 75 74 73 73 74 75 76 76 76 75 75 75 75 74 75 75 74 73 71 70 69 68 67 64 63 62 61 60 59 58 58 57 57 57 56 56 57 56
74 72 74 78 79 78 79 79 79 79 81 81 79 79 80 81 81 80 80 80 80 80 79 77 75 74 73 70 67 64 63 62 61 60 60 60 59 59 59 58 59 60
73 70 72 76 77 79 80 81 82 82 82 83 81 81 82 82 84 84 83 83 83 84 84 83 83 83 82 81 78 75 72 68 66 64 63 63 63 64 63 63 63 64
73 70 71 74 76 78 80 81 84 84 82 83 84 84 83 83 83 84 84 85 87 87 87 86 87 88 89 89 88 87 85 81 79 76 73 71 70 69 69 68 69 69
70 68 68 71 75 77 78 81 83 82 81 82 83 84 85 85 85 84 85 87 88 88 89 87 88 90 91 91 91 91 91 90 90 88 85 83 80 78 77 75 75 75
67 66 65 68 72 74 76 81 83 80 79 80 82 85 87 86 88 88 88 89 89 89 90 90 89 89 90 91 91 92 95 96 96 95 91 90 88 85 84 82 80 79
66 66 63 65 69 72 76 83 85 80 77 79 82 86 88 88 91 93 91 91 91 90 91 91 90 88 88 90 89 92 98 100 100 99 97 96 95 93 91 89 88 86
67 66 63 64 66 71 79 86 87 81 76 77 80 85 89 91 94 96 95 94 93 93 93 91 89 89 90 93 94 95 99 100 99 100 100 99 99 99 98 97 96 95
68 65 63 62 63 71 82 89 90 86 80 78 79 83 88 91 94 95 96 97 96 93 89 83 83 88 92 96 98 99 100 100 100 99 99 100 100 100 100 100 100 99
68 63 60 58 60 72 84 91 94 91 85 83 81 80 85 90 91 92 96 100 96 87 80 76 77 83 92 97 99 101 100 98 100 100 99 100 100 99 99 99 99 100
66 60 57 55 59 72 84 93 99 96 90 88 85 82 83 83 80 80 85 92 90 79 71 72 71 73 88 100 100 99 100 100 98 95 94 98 100 98 98 100 100 99
66 59 55 54 58 71 87 97 100 98 92 87 85 85 81 71 64 64 65 70 74 69 66 70 67 65 81 99 102 98 99 101 96 88 90 98 96 92 93 96 99 99
67 58 55 57 59 69 88 99 100 97 88 78 83 89 79 62 57 56 52 53 58 56 56 60 57 60 80 99 101 99 100 101 96 88 89 91 85 82 84 89 94 97
67 59 58 61 64 73 87 95 96 89 71 65 84 94 81 69 67 59 49 49 51 47 46 51 50 61 90 104 99 99 101 100 97 90 85 85 83 83 86 89 96 100
67 61 60 61 67 80 89 88 85 74 57 62 87 95 85 82 80 64 49 49 56 54 55 59 55 62 90 103 98 99 101 99 99 95 88 88 88 89 92 95 99 101
68 64 61 60 69 83 89 86 83 72 62 71 85 85 81 82 78 67 59 61 71 73 71 72 64 62 85 102 99 99 101 98 98 97 92 88 87 91 97 99 99 98
68 64 61 64 75 85 85 86 87 80 77 83 82 76 74 71 67 70 76 81 85 83 78 77 68 62 82 103 101 98 101 99 96 96 93 87 88 94 97 95 95 95
63 58 62 71 84 88 84 82 82 83 86 85 77 71 71 69 69 78 90 95 92 84 78 76 69 60 73 97 102 98 101 100 96 94 90 86 90 94 91 87 89 92
56 51 61 74 84 87 84 76 74 85 90 78 72 78 79 79 83 88 94 96 89 80 74 72 67 56 62 89 104 99 99 101 98 94 89 87 94 95 87 83 85 87
54 52 59 67 76 84 83 73 74 89 86 69 75 89 82 79 87 90 91 91 84 77 72 70 68 59 61 88 106 100 97 102 100 96 92 92 98 97 87 84 87 89
Wind_Speed
20 19 17 14 13 13 12 10 9 8 7 8 9 10 11 12 12 14 16 18 20 22 24 25 26 27 28 27 26 26 25 25 25 25 25 27 28 28 29 29 29 28
21 19 18 16 15 15 14 12 11 10 9 8 8 8 9 10 11 12 13 14 16 19 21 22 23 25 26 25 24 24 24 24 25 24 25 27 27 27 29 29 29 30
21 20 19 17 16 16 14 13 12 11 10 10 10 9 9 9 9 10 11 12 13 15 17 19 21 23 25 25 25 24 24 23 24 23 24 26 27 27 27 27 28 29
20 19 18 18 17 16 15 14 13 13 12 11 11 11 11 10 10 9 9 10 11 12 14 15 18 20 22 24 25 25 24 24 24 23 23 25 25 26 26 25 25 27
18 18 17 17 17 16 15 14 14 14 13 13 13 12 12 12 12 11 10 9 9 10 12 13 15 16 18 19 21 23 23 23 23 22 24 25 24 24 25 24 25 26
18 18 17 17 17 15 15 14 14 14 14 14 14 13 13 14 12 12 12 11 11 10 11 11 12 14 15 16 18 20 21 21 21 21 23 25 24 24 23 23 25 26
17 18 16 16 17 15 15 14 14 14 14 14 14 13 13 14 13 13 13 12 12 11 11 11 11 12 13 14 16 18 18 19 20 21 22 24 23 24 23 22 24 26
16 17 16 16 16 14 14 15 14 14 14 14 14 13 13 13 13 13 13 13 12 11 10 10 10 10 11 12 14 16 17 18 19 20 22 23 23 23 24 22 23 26
16 17 16 16 15 14 14 15 15 15 15 15 14 13 13 13 12 13 13 12 12 11 11 10 10 10 10 10 11 13 15 17 18 19 21 22 23 23 23 23 23 25
15 16 16 16 15 15 15 15 14 15 15 15 14 14 14 14 13 13 13 12 12 11 11 11 11 11 11 11 11 12 13 15 16 18 20 20 22 23 22 23 23 25
15 16 17 16 15 15 15 15 14 14 15 15 14 14 15 15 15 15 14 13 12 12 12 12 11 11 12 11 12 12 12 13 13 15 17 19 20 22 22 23 23 25
17 17 17 16 15 15 15 14 14 14 14 14 14 14 14 13 13 14 14 13 13 13 13 13 13 12 12 12 12 12 12 12 12 12 14 16 18 19 20 22 23 25
17 16 17 16 15 15 15 13 13 14 14 14 13 13 13 12 12 12 11 11 12 12 12 12 13 13 13 12 13 13 13 13 13 13 13 13 14 15 16 18 20 22
16 15 15 15 15 15 14 12 12 13 13 13 13 13 12 12 12 11 11 11 11 11 11 12 12 12 11 11 13 14 14 14 14 14 14 14 14 14 14 14 16 17
16 15 14 14 14 14 13 12 12 12 13 13 13 12 12 11 11 11 11 11 11 12 12 12 12 10 9 11 14 15 14 13 14 14 14 15 15 14 14 13 14 14
15 14 14 13 14 13 12 11 11 11 13 13 13 13 12 11 11 11 10 10 10 12 12 12 12 9 9 12 14 14 13 13 12 11 11 11 11 12 12 12 13 14
14 13 13 13 13 12 11 11 10 10 12 13 13 13 12 12 12 12 11 9 9 12 12 12 12 10 11 14 15 13 13 11 9 10 11 10 10 12 12 12 12 13
12 12 12 13 12 12 11 10 10 10 12 13 14 13 13 13 13 13 12 11 11 12 12 12 12 11 12 15 15 15 14 10 9 12 11 9 11 13 13 13 12 13
11 11 12 12 12 12 11 10 9 11 13 14 14 12 13 14 14 13 13 12 12 13 13 13 13 11 13 16 16 16 15 10 10 13 11 10 13 14 13 14 13 13
10 10 11 12 12 11 10 10 10 12 14 14 12 11 12 14 13 13 13 12 11 12 12 13 12 12 14 16 15 16 16 10 11 14 13 12 13 13 13 13 12 13
10 11 12 13 12 10 10 11 11 13 14 13 10 10 11 11 11 12 13 12 10 10 10 11 12 12 14 16 15 16 15 11 11 13 11 10 12 11 11 10 10 12
10 11 12 13 12 10 10 11 12 13 14 12 10 10 10 10 10 11 11 10 9 9 9 11 12 11 13 16 16 16 16 13 11 10 9 10 12 10 8 7 8 12
11 12 13 13 12 11 11 12 12 13 12 10 11 11 10 10 10 9 9 8 8 8 9 11 12 12 13 16 16 16 16 14 11 10 9 11 11 8 7 7 9 12
14 13 13 13 11 11 12 12 12 12 11 10 10 11 10 10 9 8 7 6 6 7 9 11 12 13 14 16 17 17 16 14 12 10 10 12 10 7 7 10 11 13
14 14 13 12 11 11 11 13 13 11 10 10 10 9 9 8 7 7 6 4 5 7 9 11 14 15 16 17 18 17 16 15 12 10 11 11 8 6 10 12 12 13
13 14 13 12 12 11 11 12 11 9 10 10 8 6 7 7 6 7 7 4 5 8 10 13 16 18 18 17 17 17 17 15 12 10 12 10 5 5 10 11 12 13
Wind_Direction
17 18 18 18 17 12 4 357 346 330 314 301 291 283 279 276 272 268 266 265 264 262 259 258 256 255 254 251 247 245 244 243 241 239 237 235 235 235 235 234 233 234
11 12 13 14 14 13 11 10 7 1 350 338 325 313 302 294 286 278 272 266 263 263 262 260 257 255 254 251 247 244 244 245 244 242 240 239 239 238 237 236 234 234
6 6 7 7 6 5 5 6 8 8 3 358 353 346 335 324 311 295 285 277 269 266 263 261 260 259 258 256 251 247 244 244 244 243 243 242 241 241 240 238 236 235
1 1 2 2 360 359 359 360 2 1 359 357 355 354 352 347 341 329 313 298 285 277 270 265 264 262 261 258 255 251 247 245 245 243 243 245 244 243 243 240 239 237
358 357 357 357 356 354 354 355 356 355 354 352 351 351 349 348 347 344 339 329 313 298 285 276 270 265 261 258 255 253 250 247 245 242 242 245 244 244 243 240 240 239
354 354 353 354 353 352 351 351 351 351 350 348 348 347 345 346 345 341 339 336 330 320 307 294 283 275 268 263 258 255 253 250 248 244 242 245 245 244 242 239 239 239
350 350 349 349 349 349 348 347 345 346 346 344 345 344 342 342 341 339 337 333 330 326 321 312 299 289 278 270 265 261 258 255 253 249 246 247 248 246 243 240 239 240
345 346 345 344 344 344 345 345 343 343 342 342 342 340 339 339 337 336 334 331 329 323 321 318 309 302 291 279 272 267 263 260 256 252 250 251 250 249 246 243 241 242
342 344 342 340 340 339 340 341 340 341 341 341 340 337 336 336 334 333 331 330 327 324 323 321 317 313 305 295 286 277 270 265 259 255 254 253 252 251 249 245 243 245
339 340 339 338 337 335 336 337 337 339 340 340 338 336 336 335 334 334 334 333 330 328 328 325 323 320 314 306 298 290 282 275 269 263 259 257 255 254 251 249 246 247
337 338 337 334 333 332 332 333 335 337 338 338 337 336 336 336 337 337 337 336 333 331 329 327 324 320 315 310 303 298 291 284 280 274 268 265 262 259 256 255 251 251
335 335 333 331 329 329 329 329 332 336 337 338 336 336 336 335 337 337 336 334 331 330 328 325 323 319 316 315 310 307 303 297 291 285 279 274 271 267 264 261 258 257
331 330 330 328 325 326 326 325 328 333 336 338 336 336 336 334 335 334 333 333 329 328 328 324 323 323 320 319 319 318 315 310 304 297 291 286 282 278 274 270 266 264
330 327 326 325 323 323 323 321 326 331 334 337 337 337 336 334 335 334 333 334 333 332 332 329 328 328 326 328 329 323 316 309 305 301 297 295 293 291 288 284 279 274
328 325 322 322 322 322 320 319 323 328 332 335 337 338 337 335 335 336 335 337 338 338 339 340 339 335 334 340 332 319 311 305 300 297 296 295 295 297 298 296 293 289
323 322 319 320 322 320 317 317 320 324 329 332 335 337 338 338 338 340 340 337 338 342 343 345 345 340 337 338 330 319 314 310 303 302 306 310 313 315 315 313 310 305
319 319 317 317 319 317 314 314 314 319 324 325 330 336 337 338 342 344 344 340 338 341 343 343 343 339 336 334 330 327 325 320 322 330 332 333 334 331 327 325 321 316
315 314 313 315 316 313 311 310 309 314 320 322 326 331 333 338 343 344 345 343 338 336 338 340 338 334 335 335 331 329 329 330 339 344 345 345 340 334 333 332 330 326
312 310 310 311 313 311 306 305 305 309 317 322 323 323 329 338 342 343 343 343 339 335 335 337 335 334 337 338 334 330 329 335 348 348 347 344 338 335 334 334 334 333
308 307 307 307 310 309 304 303 304 309 319 324 319 316 326 335 338 340 343 344 339 334 333 337 341 344 344 341 338 335 332 337 351 347 339 334 335 335 334 334 337 339
306 305 306 308 309 306 303 305 308 315 324 326 318 314 322 326 330 337 342 346 344 336 337 347 353 355 352 347 345 342 337 340 350 346 337 333 334 334 333 334 341 346
305 305 306 309 309 306 307 308 311 318 325 324 317 317 321 321 325 335 343 348 350 346 350 359 2 2 358 352 349 348 344 341 340 338 335 334 332 329 333 339 347 349
309 307 308 309 307 306 309 310 311 316 320 319 317 319 324 327 329 338 348 353 357 1 6 5 3 2 359 354 350 350 349 344 336 332 331 330 329 330 339 340 340 341
312 310 308 307 303 304 309 311 313 315 315 317 318 319 325 330 333 343 355 0 10 22 21 8 359 357 357 355 351 350 351 347 338 332 328 325 324 330 336 330 329 333
313 312 308 304 300 302 308 311 314 314 314 318 321 320 323 327 332 348 3 17 34 34 24 5 355 353 356 355 351 352 353 348 341 334 327 323 324 332 329 324 327 332
312 310 306 302 299 301 305 310 314 313 313 321 324 319 323 330 338 356 14 34 41 29 16 3 355 353 355 355 352 351 351 348 345 334 323 322 336 346 332 327 332 335